Location: Aalen
(48.8330°N, 10.1000°E)
Time: 01:12:35
(UTC+02:00)

Transit 4A - Pass Details

Date: 01 August 2021
Orbit: 870 x 974 km, 66.8° (Epoch: 26 September)

Event Time Altitude Azimuth Distance (km) Brightness Sun altitude
Rises 00:30:47 0° 183° (S) 3,491 - -22.0°
Reaches altitude 10° 00:33:30 10° 174° (S) 2,542 - -22.1°
Exits shadow 00:38:24 33° 118° (ESE) 1,436 8.5 -22.3°
Maximum altitude 00:38:41 33° 112° (ESE) 1,432 8.6 -22.3°
Drops below altitude 10° 00:43:48 10° 50° (NE) 2,527 10.5 -22.5°
Sets 00:46:29 0° 41° (NE) 3,467 11.4 -22.6°
